Simultaneous Nadir Overpasses (SNOs) Predictions

Prediction of SNOs between GOES-16 and TERRA Satellite Orbit:

Table of predicted SNOs for the next 14.0 days since TLE Epoch: 4/16/2022
Index Date Time (GOES-16) GOES-16 Lat,Lon TERRA Lat,Lon Distance(km) Time Diff (sec)
1 04/16/2022 15:05:13 0.07, -75.23 -0.82, -70.88 494.39 80
2 04/17/2022 03:26:37 -0.07, -75.22 -0.27, -76.08 98.18 80
3 04/19/2022 03:11:44 -0.06, -75.23 0.39, -73.13 238.34 80
4 04/19/2022 15:32:59 0.06, -75.25 0.70, -78.29 346.05 80
5 04/21/2022 15:20:45 0.06, -75.26 0.10, -75.34 9.80 80
6 04/23/2022 15:11:12 0.05, -75.27 -0.58, -72.40 327.57 80
7 04/24/2022 03:32:34 -0.05, -75.26 -0.56, -77.58 264.53 80
8 04/26/2022 03:17:41 -0.04, -75.29 0.07, -74.63 73.90 80
9 04/28/2022 03:05:27 -0.04, -75.32 0.71, -71.68 413.36 80
10 04/28/2022 15:26:41 0.04, -75.35 0.37, -76.84 170.34 80
